📊 Raw Sensor Data

Showing records 46526 to 46550 of 85,072 total

ID Distance (ft) Battery V Battery A Int Temp (°F) Int Humid (%) Ext Temp (°F) Solar V RSSI SNR Time Stamp
38559 -- 3.97 0 85 47 78 5.10 -84 8 04/22/2025 06:00 PM
38558 -- 3.97 0 87 46 80 5.10 -84 8 04/22/2025 05:45 PM
38557 -- 3.97 0 88 45 78 5.10 -86 7 04/22/2025 05:30 PM
38556 -- 3.97 6 89 45 81 5.10 -85 8 04/22/2025 05:15 PM
38555 -- 3.97 0 89 44 81 5.10 -91 8 04/22/2025 05:00 PM
38554 -- 3.97 0 90 44 82 5.10 -88 8 04/22/2025 04:46 PM
38553 -- 3.97 6 89 44 82 5.10 -86 8 04/22/2025 04:30 PM
38552 -- 3.97 0 91 44 80 5.10 -83 8 04/22/2025 04:15 PM
38551 -- 3.97 6 93 42 82 5.10 -82 9 04/22/2025 04:00 PM
38550 -- 3.97 0 93 41 84 5.10 -89 7 04/22/2025 03:45 PM
38549 -- 3.97 0 94 40 83 5.10 -87 8 04/22/2025 03:30 PM
38548 -- 3.97 0 92 40 84 5.10 -88 8 04/22/2025 03:16 PM
38547 -- 3.99 6 91 40 82 5.10 -89 8 04/22/2025 03:00 PM
38546 -- 3.97 6 90 40 80 5.10 -98 7 04/22/2025 02:45 PM
38545 -- 3.96 6 90 39 83 5.10 -88 8 04/22/2025 02:30 PM
38544 -- 4.00 6 89 39 81 5.10 -86 8 04/22/2025 02:15 PM
38543 -- 3.96 0 88 40 79 5.10 -86 8 04/22/2025 02:00 PM
38542 -- 3.96 0 86 40 78 5.10 -89 8 04/22/2025 01:45 PM
38541 -- 3.96 0 88 39 79 5.10 -95 7 04/22/2025 01:30 PM
38540 -- 3.96 6 87 39 81 5.10 -92 8 04/22/2025 01:15 PM
38539 -- 3.96 0 85 39 79 5.10 -93 7 04/22/2025 01:00 PM
38538 -- 4.12 5 84 39 81 5.10 -89 8 04/22/2025 12:45 PM
38537 -- 3.96 0 83 39 79 5.10 -89 8 04/22/2025 12:30 PM
38536 -- 3.96 0 82 39 77 5.10 -89 8 04/22/2025 12:15 PM
38535 -- 4.04 6 81 39 78 5.10 -85 8 04/22/2025 12:01 PM